User: anonymous   Login
Location: Raleigh
(35.7720°N, 78.6390°W)
Time: 06:48:10
(UTC-05:00)
Language:

JAS-2 - Orbit

View from above orbital plane
View from above orbital plane
View from above satellite
View from above satellite

Ground track
Ground track

The orbit data is extracted from the following two-line orbital elements,

1 24278U 96046B   16346.19660685 -.00000034  00000-0 -13255-5 0  9999
2 24278  98.5836 248.2302 0351353 104.2723 259.7698 13.53072553  3456
Epoch (UTC): 11 December 2016 04:43:06
Eccentricity: 0.0351353
inclination: 98.5836°
perigee height: 799 km
apogee height: 1322 km
right ascension of ascending node: 248.2302°
argument of perigee: 104.2723°
revolutions per day: 13.53072553
mean anomaly at epoch: 259.7698°
orbit number at epoch: 345

The dashed part of the orbit path shows where the satellite is in the earth's shadow,  

DLR